Time,TemperatureF,DewpointF,PressureIn,WindDirection,WindDirectionDegrees,WindSpeedMPH,WindSpeedGustMPH,Humidity,HourlyPrecipIn,Conditions,Clouds,dailyrainin,SoftwareType,DateUTC
2013-02-09 00:01:00,26.0,24.0,30.13,NW,321,5.0,-999.0,92,-99.99,,,-99.99,,2013-02-09 07:01:00,
2013-02-09 00:11:00,26.0,24.0,30.13,NW,321,5.0,-999.0,92,-99.99,,,-99.99,,2013-02-09 07:11:00,
2013-02-09 00:21:00,26.0,24.0,30.13,NNW,333,5.0,-999.0,92,-99.99,,,-99.99,,2013-02-09 07:21:00,
2013-02-09 00:31:00,25.0,23.0,30.12,North,360,6.0,-999.0,92,-99.99,,,-99.99,,2013-02-09 07:31:00,
2013-02-09 00:42:00,25.0,23.0,30.12,North,360,6.0,-999.0,92,-99.99,,,-99.99,,2013-02-09 07:42:00,
2013-02-09 00:52:00,25.0,23.0,30.12,North,355,6.0,-999.0,92,-99.99,,,-99.99,,2013-02-09 07:52:00,
2013-02-09 01:01:00,25.0,23.0,30.11,NNW,339,6.0,-999.0,92,-99.99,,,-99.99,,2013-02-09 08:01:00,
2013-02-09 01:11:00,25.0,23.0,30.11,NNW,339,6.0,-999.0,92,-99.99,,,-99.99,,2013-02-09 08:11:00,
2013-02-09 01:21:00,25.0,23.0,30.11,North,355,5.0,-999.0,92,-99.99,,,-99.99,,2013-02-09 08:21:00,
2013-02-09 01:31:00,25.0,23.0,30.10,North,360,6.0,-999.0,92,-99.99,,,-99.99,,2013-02-09 08:31:00,
2013-02-09 01:41:00,25.0,23.0,30.10,North,360,6.0,-999.0,92,-99.99,,,-99.99,,2013-02-09 08:41:00,
2013-02-09 01:52:00,25.0,23.0,30.11,North,360,5.0,-999.0,92,-99.99,,,-99.99,,2013-02-09 08:52:00,
2013-02-09 02:02:00,25.0,23.0,30.11,North,5,3.0,-999.0,93,-99.99,,,-99.99,,2013-02-09 09:02:00,
2013-02-09 02:11:00,25.0,23.0,30.11,North,5,3.0,-999.0,93,-99.99,,,-99.99,,2013-02-09 09:11:00,
2013-02-09 02:21:00,25.0,23.0,30.11,North,355,2.0,-999.0,93,-99.99,,,-99.99,,2013-02-09 09:21:00,
2013-02-09 02:31:00,25.0,23.0,30.11,North,355,2.0,-999.0,93,-99.99,,,-99.99,,2013-02-09 09:31:00,
2013-02-09 02:41:00,25.0,23.0,30.11,North,355,2.0,-999.0,93,-99.99,,,-99.99,,2013-02-09 09:41:00,
2013-02-09 02:52:00,25.0,23.0,30.10,North,360,2.0,-999.0,93,-99.99,,,-99.99,,2013-02-09 09:52:00,
2013-02-09 03:01:00,25.0,23.0,30.10,North,360,1.0,-999.0,93,-99.99,,,-99.99,,2013-02-09 10:01:00,
2013-02-09 03:11:00,25.0,23.0,30.10,North,360,1.0,-999.0,93,-99.99,,,-99.99,,2013-02-09 10:11:00,
2013-02-09 03:21:00,25.0,23.0,30.09,North,360,1.0,-999.0,93,-99.99,,,-99.99,,2013-02-09 10:21:00,
2013-02-09 03:31:00,25.0,23.0,30.09,North,360,1.0,-999.0,93,-99.99,,,-99.99,,2013-02-09 10:31:00,
2013-02-09 03:41:00,25.0,23.0,30.09,North,360,1.0,-999.0,93,-99.99,,,-99.99,,2013-02-09 10:41:00,
2013-02-09 03:52:00,25.0,23.0,30.09,NE,48,3.0,-999.0,93,-99.99,,,-99.99,,2013-02-09 10:52:00,
2013-02-09 04:01:00,25.0,23.0,30.08,North,360,4.0,-999.0,93,-99.99,,,-99.99,,2013-02-09 11:01:00,
2013-02-09 04:11:00,25.0,23.0,30.08,North,360,4.0,-999.0,93,-99.99,,,-99.99,,2013-02-09 11:11:00,
2013-02-09 04:21:00,25.0,23.0,30.07,NNE,25,5.0,-999.0,93,-99.99,,,-99.99,,2013-02-09 11:21:00,
2013-02-09 04:31:00,25.0,23.0,30.07,NNE,24,7.0,-999.0,93,-99.99,,,-99.99,,2013-02-09 11:31:00,
2013-02-09 04:41:00,25.0,23.0,30.07,NNE,24,7.0,-999.0,93,-99.99,,,-99.99,,2013-02-09 11:41:00,
2013-02-09 04:52:00,24.0,22.0,30.07,NNE,26,8.0,-999.0,93,-99.99,,,-99.99,,2013-02-09 11:52:00,
2013-02-09 05:02:00,24.0,22.0,30.07,NE,43,7.0,-999.0,93,-99.99,,,-99.99,,2013-02-09 12:02:00,
2013-02-09 05:11:00,24.0,22.0,30.07,NE,43,7.0,-999.0,93,-99.99,,,-99.99,,2013-02-09 12:11:00,
2013-02-09 05:21:00,24.0,22.0,30.07,NE,43,7.0,-999.0,93,-99.99,,,-99.99,,2013-02-09 12:21:00,
2013-02-09 05:32:00,24.0,22.0,30.06,ENE,57,12.0,-999.0,93,-99.99,,,-99.99,,2013-02-09 12:32:00,
2013-02-09 05:42:00,24.0,22.0,30.06,ENE,57,12.0,-999.0,93,-99.99,,,-99.99,,2013-02-09 12:42:00,
2013-02-09 05:52:00,24.0,22.0,30.06,North,9,8.0,-999.0,93,-99.99,,,-99.99,,2013-02-09 12:52:00,
2013-02-09 06:02:00,24.0,22.0,30.05,NNE,26,9.0,-999.0,93,-99.99,,,-99.99,,2013-02-09 13:02:00,
2013-02-09 06:11:00,24.0,22.0,30.05,NNE,26,9.0,-999.0,93,-99.99,,,-99.99,,2013-02-09 13:11:00,
2013-02-09 06:21:00,24.0,22.0,30.06,NE,39,8.0,-999.0,93,-99.99,,,-99.99,,2013-02-09 13:21:00,
2013-02-09 06:31:00,24.0,22.0,30.05,NE,40,8.0,-999.0,92,-99.99,,,-99.99,,2013-02-09 13:31:00,
2013-02-09 06:41:00,24.0,22.0,30.05,NE,40,8.0,-999.0,92,-99.99,,,-99.99,,2013-02-09 13:41:00,
2013-02-09 06:52:00,24.0,22.0,30.05,NE,36,8.0,-999.0,93,-99.99,,,-99.99,,2013-02-09 13:52:00,
2013-02-09 07:01:00,24.0,22.0,30.05,NNE,15,7.0,-999.0,92,-99.99,,,-99.99,,2013-02-09 14:01:00,
2013-02-09 07:11:00,24.0,22.0,30.05,NNE,15,7.0,-999.0,92,-99.99,,,-99.99,,2013-02-09 14:11:00,
2013-02-09 07:21:00,24.0,22.0,30.05,NE,38,5.0,-999.0,92,-99.99,,,-99.99,,2013-02-09 14:21:00,
2013-02-09 07:31:00,24.0,22.0,30.06,North,9,5.0,-999.0,92,-99.99,,,-99.99,,2013-02-09 14:31:00,
2013-02-09 07:41:00,24.0,22.0,30.06,North,9,5.0,-999.0,92,-99.99,,,-99.99,,2013-02-09 14:41:00,
2013-02-09 07:52:00,24.0,22.0,30.06,North,9,5.0,-999.0,92,-99.99,,,-99.99,,2013-02-09 14:52:00,
2013-02-09 08:01:00,24.0,22.0,30.06,North,9,5.0,-999.0,92,-99.99,,,-99.99,,2013-02-09 15:01:00,
2013-02-09 08:11:00,24.0,22.0,30.06,North,9,5.0,-999.0,92,-99.99,,,-99.99,,2013-02-09 15:11:00,
2013-02-09 08:22:00,24.0,22.0,30.06,NNE,14,4.0,-999.0,93,-99.99,,,-99.99,,2013-02-09 15:22:00,
2013-02-09 08:32:00,24.0,22.0,30.06,NNE,25,4.0,-999.0,93,-99.99,,,-99.99,,2013-02-09 15:32:00,
2013-02-09 08:42:00,24.0,22.0,30.06,NNE,25,4.0,-999.0,93,-99.99,,,-99.99,,2013-02-09 15:42:00,
2013-02-09 08:52:00,24.0,22.0,30.06,NNE,20,4.0,-999.0,93,-99.99,,,-99.99,,2013-02-09 15:52:00,
2013-02-09 09:01:00,24.0,22.0,30.06,North,9,6.0,-999.0,93,-99.99,,,-99.99,,2013-02-09 16:01:00,
2013-02-09 09:11:00,24.0,22.0,30.06,North,9,6.0,-999.0,93,-99.99,,,-99.99,,2013-02-09 16:11:00,
2013-02-09 09:21:00,25.0,23.0,30.05,NNE,24,6.0,-999.0,92,-99.99,,,-99.99,,2013-02-09 16:21:00,
2013-02-09 09:31:00,25.0,23.0,30.05,North,5,7.0,-999.0,92,-99.99,,,-99.99,,2013-02-09 16:31:00,
2013-02-09 09:41:00,25.0,23.0,30.05,North,5,7.0,-999.0,92,-99.99,,,-99.99,,2013-02-09 16:41:00,
2013-02-09 09:52:00,25.0,23.0,30.06,North,355,7.0,-999.0,92,-99.99,,,-99.99,,2013-02-09 16:52:00,
2013-02-09 10:01:00,25.0,23.0,30.05,NNE,14,7.0,-999.0,92,-99.99,,,-99.99,,2013-02-09 17:01:00,
2013-02-09 10:11:00,25.0,23.0,30.05,NNE,14,7.0,-999.0,92,-99.99,,,-99.99,,2013-02-09 17:11:00,
2013-02-09 10:21:00,25.0,23.0,30.05,NNW,334,7.0,-999.0,92,-99.99,,,-99.99,,2013-02-09 17:21:00,
2013-02-09 10:31:00,26.0,24.0,30.04,NNW,346,8.0,-999.0,92,-99.99,,,-99.99,,2013-02-09 17:31:00,
2013-02-09 10:41:00,26.0,24.0,30.04,NNW,346,8.0,-999.0,92,-99.99,,,-99.99,,2013-02-09 17:41:00,
2013-02-09 10:52:00,26.0,24.0,30.04,North,355,8.0,-999.0,91,-99.99,,,-99.99,,2013-02-09 17:52:00,
2013-02-09 11:01:00,26.0,24.0,30.05,NNW,347,5.0,-999.0,91,-99.99,,,-99.99,,2013-02-09 18:01:00,
2013-02-09 11:11:00,26.0,24.0,30.05,NNW,347,5.0,-999.0,91,-99.99,,,-99.99,,2013-02-09 18:11:00,
2013-02-09 11:23:00,26.0,24.0,30.04,North,355,5.0,-999.0,91,-99.99,,,-99.99,,2013-02-09 18:23:00,
2013-02-09 11:31:00,27.0,24.0,30.03,North,355,5.0,-999.0,90,-99.99,,,-99.99,,2013-02-09 18:31:00,
2013-02-09 11:41:00,27.0,24.0,30.03,North,355,5.0,-999.0,90,-99.99,,,-99.99,,2013-02-09 18:41:00,
2013-02-09 11:52:00,27.0,24.0,30.05,NNW,346,5.0,-999.0,90,-99.99,,,-99.99,,2013-02-09 18:52:00,
2013-02-09 12:01:00,27.0,24.0,30.04,NNW,336,4.0,-999.0,90,-99.99,,,-99.99,,2013-02-09 19:01:00,
2013-02-09 12:11:00,27.0,24.0,30.04,NNW,336,4.0,-999.0,90,-99.99,,,-99.99,,2013-02-09 19:11:00,
2013-02-09 12:22:00,28.0,25.0,30.03,NW,309,2.0,-999.0,89,-99.99,,,-99.99,,2013-02-09 19:22:00,
2013-02-09 12:31:00,28.0,25.0,30.03,WNW,292,4.0,-999.0,88,-99.99,,,-99.99,,2013-02-09 19:31:00,
2013-02-09 12:41:00,28.0,25.0,30.03,WNW,292,4.0,-999.0,88,-99.99,,,-99.99,,2013-02-09 19:41:00,
2013-02-09 12:52:00,29.0,26.0,30.02,WNW,289,3.0,-999.0,87,-99.99,,,-99.99,,2013-02-09 19:52:00,
2013-02-09 13:01:00,29.0,25.0,30.01,NW,323,2.0,-999.0,86,-99.99,,,-99.99,,2013-02-09 20:01:00,
2013-02-09 13:11:00,29.0,25.0,30.01,NW,323,2.0,-999.0,86,-99.99,,,-99.99,,2013-02-09 20:11:00,
2013-02-09 13:21:00,30.0,26.0,30.01,NW,323,3.0,-999.0,85,-99.99,,,-99.99,,2013-02-09 20:21:00,
2013-02-09 13:31:00,31.0,26.0,30.01,NW,311,0.0,-999.0,83,-99.99,,,-99.99,,2013-02-09 20:31:00,
2013-02-09 13:41:00,31.0,26.0,30.01,NW,311,0.0,-999.0,83,-99.99,,,-99.99,,2013-02-09 20:41:00,
2013-02-09 13:52:00,31.0,26.0,30.01,WNW,292,3.0,-999.0,82,-99.99,,,-99.99,,2013-02-09 20:52:00,
2013-02-09 14:01:00,30.0,25.0,30.01,WNW,292,3.0,-999.0,82,-99.99,,,-99.99,,2013-02-09 21:01:00,
2013-02-09 14:11:00,30.0,25.0,30.01,WNW,292,3.0,-999.0,82,-99.99,,,-99.99,,2013-02-09 21:11:00,
2013-02-09 14:21:00,30.0,25.0,30.01,WNW,288,4.0,-999.0,82,-99.99,,,-99.99,,2013-02-09 21:21:00,
2013-02-09 14:31:00,30.0,25.0,30.00,WNW,288,3.0,-999.0,82,-99.99,,,-99.99,,2013-02-09 21:31:00,
2013-02-09 14:41:00,30.0,25.0,30.00,WNW,288,3.0,-999.0,82,-99.99,,,-99.99,,2013-02-09 21:41:00,
2013-02-09 14:51:00,29.0,25.0,30.00,WNW,287,3.0,-999.0,84,-99.99,,,-99.99,,2013-02-09 21:51:00,
2013-02-09 15:01:00,27.0,24.0,30.00,West,259,4.0,-999.0,87,-99.99,,,-99.99,,2013-02-09 22:01:00,
2013-02-09 15:11:00,27.0,24.0,30.00,West,259,4.0,-999.0,87,-99.99,,,-99.99,,2013-02-09 22:11:00,
2013-02-09 15:21:00,27.0,24.0,30.00,West,262,4.0,-999.0,89,-99.99,,,-99.99,,2013-02-09 22:21:00,
2013-02-09 15:31:00,27.0,24.0,30.00,West,262,3.0,-999.0,89,-99.99,,,-99.99,,2013-02-09 22:31:00,
2013-02-09 15:41:00,27.0,24.0,30.00,West,262,3.0,-999.0,89,-99.99,,,-99.99,,2013-02-09 22:41:00,
2013-02-09 15:51:00,27.0,24.0,30.00,West,262,2.0,-999.0,89,-99.99,,,-99.99,,2013-02-09 22:51:00,
2013-02-09 16:01:00,28.0,25.0,29.99,West,262,0.0,-999.0,89,-99.99,,,-99.99,,2013-02-09 23:01:00,
2013-02-09 16:11:00,28.0,25.0,29.99,West,262,0.0,-999.0,89,-99.99,,,-99.99,,2013-02-09 23:11:00,
2013-02-09 16:21:00,28.0,25.0,29.99,West,262,0.0,-999.0,89,-99.99,,,-99.99,,2013-02-09 23:21:00,
2013-02-09 16:31:00,28.0,24.0,29.99,West,263,1.0,-999.0,86,-99.99,,,-99.99,,2013-02-09 23:31:00,
2013-02-09 16:41:00,28.0,24.0,29.99,West,263,1.0,-999.0,86,-99.99,,,-99.99,,2013-02-09 23:41:00,
2013-02-09 16:52:00,28.0,24.0,29.99,West,263,1.0,-999.0,86,-99.99,,,-99.99,,2013-02-09 23:52:00,
2013-02-09 17:02:00,28.0,24.0,29.99,West,263,0.0,-999.0,84,-99.99,,,-99.99,,2013-02-10 00:02:00,
2013-02-09 17:11:00,28.0,24.0,29.99,West,263,0.0,-999.0,84,-99.99,,,-99.99,,2013-02-10 00:11:00,
2013-02-09 17:21:00,28.0,24.0,29.99,West,263,0.0,-999.0,83,-99.99,,,-99.99,,2013-02-10 00:21:00,
2013-02-09 17:31:00,27.0,23.0,30.00,West,263,0.0,-999.0,85,-99.99,,,-99.99,,2013-02-10 00:31:00,
2013-02-09 17:41:00,27.0,23.0,30.00,West,263,0.0,-999.0,85,-99.99,,,-99.99,,2013-02-10 00:41:00,
2013-02-09 17:52:00,26.0,22.0,30.00,West,263,0.0,-999.0,86,-99.99,,,-99.99,,2013-02-10 00:52:00,
2013-02-09 18:01:00,24.0,21.0,30.00,West,263,0.0,-999.0,88,-99.99,,,-99.99,,2013-02-10 01:01:00,
2013-02-09 18:11:00,24.0,21.0,30.00,West,263,0.0,-999.0,88,-99.99,,,-99.99,,2013-02-10 01:11:00,
2013-02-09 18:21:00,24.0,21.0,30.00,West,263,0.0,-999.0,88,-99.99,,,-99.99,,2013-02-10 01:21:00,
2013-02-09 18:31:00,24.0,21.0,30.01,West,263,0.0,-999.0,89,-99.99,,,-99.99,,2013-02-10 01:31:00,
2013-02-09 18:41:00,24.0,21.0,30.01,West,263,0.0,-999.0,89,-99.99,,,-99.99,,2013-02-10 01:41:00,
2013-02-09 18:52:00,23.0,21.0,30.01,West,263,1.0,-999.0,90,-99.99,,,-99.99,,2013-02-10 01:52:00,
2013-02-09 19:01:00,22.0,19.0,30.01,West,263,0.0,-999.0,89,-99.99,,,-99.99,,2013-02-10 02:01:00,
2013-02-09 19:11:00,22.0,19.0,30.01,West,263,0.0,-999.0,89,-99.99,,,-99.99,,2013-02-10 02:11:00,
2013-02-09 19:21:00,21.0,18.0,30.02,West,263,0.0,-999.0,89,-99.99,,,-99.99,,2013-02-10 02:21:00,
2013-02-09 19:31:00,21.0,19.0,30.02,West,263,0.0,-999.0,90,-99.99,,,-99.99,,2013-02-10 02:31:00,
2013-02-09 19:41:00,21.0,19.0,30.02,West,263,0.0,-999.0,90,-99.99,,,-99.99,,2013-02-10 02:41:00,
2013-02-09 19:52:00,21.0,19.0,30.03,NNW,335,0.0,-999.0,90,-99.99,,,-99.99,,2013-02-10 02:52:00,
2013-02-09 20:01:00,21.0,19.0,30.03,NNW,335,0.0,-999.0,90,-99.99,,,-99.99,,2013-02-10 03:01:00,
2013-02-09 20:11:00,21.0,19.0,30.03,NNW,335,0.0,-999.0,90,-99.99,,,-99.99,,2013-02-10 03:11:00,
2013-02-09 20:21:00,20.0,18.0,30.04,NNE,32,1.0,-999.0,90,-99.99,,,-99.99,,2013-02-10 03:21:00,
2013-02-09 20:31:00,20.0,18.0,30.04,NNE,32,1.0,-999.0,91,-99.99,,,-99.99,,2013-02-10 03:31:00,
2013-02-09 20:41:00,20.0,18.0,30.04,NNE,32,1.0,-999.0,91,-99.99,,,-99.99,,2013-02-10 03:41:00,
2013-02-09 20:51:00,20.0,18.0,30.05,North,5,3.0,-999.0,91,-99.99,,,-99.99,,2013-02-10 03:51:00,
2013-02-09 21:01:00,20.0,18.0,30.05,North,5,0.0,-999.0,91,-99.99,,,-99.99,,2013-02-10 04:01:00,
2013-02-09 21:11:00,20.0,18.0,30.05,North,5,0.0,-999.0,91,-99.99,,,-99.99,,2013-02-10 04:11:00,
2013-02-09 21:21:00,19.0,17.0,30.05,NNW,346,0.0,-999.0,90,-99.99,,,-99.99,,2013-02-10 04:21:00,
2013-02-09 21:32:00,19.0,17.0,30.06,NNW,346,0.0,-999.0,90,-99.99,,,-99.99,,2013-02-10 04:32:00,
2013-02-09 21:41:00,19.0,17.0,30.06,NNW,346,0.0,-999.0,90,-99.99,,,-99.99,,2013-02-10 04:41:00,
2013-02-09 21:51:00,19.0,17.0,30.06,NNW,346,0.0,-999.0,91,-99.99,,,-99.99,,2013-02-10 04:51:00,
2013-02-09 22:01:00,19.0,17.0,30.06,NNW,346,0.0,-999.0,91,-99.99,,,-99.99,,2013-02-10 05:01:00,
2013-02-09 22:11:00,19.0,17.0,30.06,NNW,346,0.0,-999.0,91,-99.99,,,-99.99,,2013-02-10 05:11:00,
2013-02-09 22:22:00,19.0,17.0,30.06,NNW,346,0.0,-999.0,91,-99.99,,,-99.99,,2013-02-10 05:22:00,
2013-02-09 22:31:00,19.0,17.0,30.06,NNW,329,0.0,-999.0,91,-99.99,,,-99.99,,2013-02-10 05:31:00,
2013-02-09 22:42:00,19.0,17.0,30.06,NNW,329,0.0,-999.0,91,-99.99,,,-99.99,,2013-02-10 05:42:00,
2013-02-09 22:52:00,19.0,17.0,30.06,NNW,330,0.0,-999.0,91,-99.99,,,-99.99,,2013-02-10 05:52:00,
2013-02-09 23:01:00,20.0,18.0,30.07,North,355,0.0,-999.0,91,-99.99,,,-99.99,,2013-02-10 06:01:00,
2013-02-09 23:11:00,20.0,18.0,30.07,North,355,0.0,-999.0,91,-99.99,,,-99.99,,2013-02-10 06:11:00,
2013-02-09 23:21:00,20.0,18.0,30.06,North,355,0.0,-999.0,91,-99.99,,,-99.99,,2013-02-10 06:21:00,
2013-02-09 23:32:00,20.0,18.0,30.07,NNW,328,1.0,-999.0,91,-99.99,,,-99.99,,2013-02-10 06:32:00,
2013-02-09 23:42:00,20.0,18.0,30.07,NNW,328,1.0,-999.0,91,-99.99,,,-99.99,,2013-02-10 06:42:00,
2013-02-09 23:51:00,20.0,18.0,30.07,NW,320,2.0,-999.0,92,-99.99,,,-99.99,,2013-02-10 06:51:00,